Location: Vancouver
(49.2500°N, 123.1330°W)
Time: 00:39:18
(UTC-07:00)

ISS - All Passes

Search period start: 01 November 2014 00:00
Search period end: 10 November 2014 23:00
Orbit: 412 x 417 km, 51.6° (Epoch: 01 November)

Date Brightness Start Highest point End Pass type
(mag) Time Alt. Az. Time Alt. Az. Time Alt. Az.
01 Nov - 09:59:39 10° S 10:01:38 15° SE 10:03:38 10° E daylight
01 Nov - 11:34:33 10° WSW 11:37:51 68° SSE 11:41:10 10° ENE daylight
01 Nov - 13:11:21 10° W 13:14:38 55° N 13:17:56 10° ENE daylight
01 Nov - 14:48:12 10° WNW 14:51:33 75° NNE 14:54:54 10° ESE daylight
01 Nov - 16:25:05 10° W 16:28:04 31° SW 16:31:03 10° SSE daylight
02 Nov - 09:45:30 10° SW 09:48:42 46° SSE 09:51:55 10° ENE daylight
02 Nov - 11:22:03 10° W 11:25:22 62° N 11:28:41 10° ENE daylight
02 Nov - 12:58:58 10° WNW 13:02:17 62° N 13:05:36 10° E daylight
02 Nov - 14:35:44 10° WNW 14:38:57 46° SSW 14:42:10 10° SE daylight
03 Nov - 08:56:35 10° SSW 08:59:33 31° SE 09:02:32 10° E daylight
03 Nov - 10:32:44 10° WSW 10:36:04 74° NNW 10:39:24 10° ENE daylight
03 Nov - 12:09:41 10° WNW 12:12:58 56° N 12:16:16 10° E daylight
03 Nov - 13:46:26 10° WNW 13:49:45 67° SSW 13:53:04 10° ESE daylight
03 Nov - 15:23:58 10° W 15:25:58 15° SW 15:27:56 10° S daylight
04 Nov - 08:07:53 10° SSW 08:10:25 21° SE 08:12:59 10° E daylight
04 Nov - 09:43:26 10° WSW 09:46:46 85° SSE 09:50:06 10° ENE daylight
04 Nov - 11:20:20 10° W 11:23:37 54° N 11:26:54 10° ENE daylight
04 Nov - 12:57:08 10° WNW 13:00:29 89° NNE 13:03:49 10° ESE daylight
04 Nov - 14:34:10 10° W 14:36:52 23° SW 14:39:33 10° SSE daylight
05 Nov - 07:19:37 10° SSE 07:21:19 13° SE 07:23:00 10° ESE daylight
05 Nov - 08:54:11 10° SW 08:57:28 61° SSE 09:00:46 10° ENE daylight
05 Nov - 10:30:55 10° W 10:34:13 57° N 10:37:30 10° ENE daylight
05 Nov - 12:07:47 10° WNW 12:11:07 71° NNE 12:14:27 10° E daylight
05 Nov - 13:44:37 10° W 13:47:40 34° SSW 13:50:43 10° SSE daylight
06 Nov - 08:05:01 10° SW 08:08:10 41° SSE 08:11:20 10° ENE daylight
06 Nov - 09:41:29 10° W 09:44:47 64° NNW 09:48:06 10° ENE daylight
06 Nov - 11:18:24 10° WNW 11:21:42 60° N 11:25:01 10° E daylight
06 Nov - 12:55:09 10° WNW 12:58:24 51° SSW 13:01:38 10° SE daylight
06 Nov - 14:33:41 10° WSW 14:34:27 11° SW 14:35:13 10° SSW daylight
07 Nov - 07:16:01 10° SSW 07:18:53 28° SE 07:21:47 10° E daylight
07 Nov - 08:52:01 10° WSW 08:55:21 79° NNW 08:58:41 10° ENE daylight
07 Nov - 10:28:57 10° WNW 10:32:14 55° N 10:35:31 10° E daylight
07 Nov - 12:05:42 10° WNW 12:09:02 73° SSW 12:12:21 10° ESE daylight
07 Nov - 13:43:03 10° W 13:45:17 17° SW 13:47:30 10° S daylight
08 Nov - 06:27:16 10° S 06:29:38 18° SE 06:32:00 10° E visible
08 Nov - 08:02:35 10° WSW 08:05:54 79° SSE 08:09:14 10° ENE daylight
08 Nov - 09:39:27 10° W 09:42:43 54° N 09:46:00 10° ENE daylight
08 Nov - 11:16:15 10° WNW 11:19:36 83° NNE 11:22:56 10° ESE daylight
08 Nov - 12:53:12 10° W 12:56:01 25° SW 12:58:49 10° SSE daylight
09 Nov - 05:39:08 10° SSE 05:40:23 12° SE 05:41:38 10° ESE visible
09 Nov - 07:13:13 10° SW 07:16:28 55° SSE 07:19:44 10° ENE daylight
09 Nov - 08:49:53 10° W 08:53:11 58° N 08:56:28 10° ENE daylight
09 Nov - 10:26:46 10° WNW 10:30:05 67° NNE 10:33:24 10° E daylight
09 Nov - 12:03:32 10° W 12:06:40 38° SSW 12:09:47 10° SE daylight
10 Nov - 06:23:57 10° SW 06:27:02 37° SSE 06:30:09 10° E visible
10 Nov - 08:00:18 10° W 08:03:36 68° NNW 08:06:56 10° ENE daylight
10 Nov - 09:37:13 10° WNW 09:40:31 58° N 09:43:48 10° E daylight
10 Nov - 11:13:57 10° WNW 11:17:14 57° SSW 11:20:29 10° SE daylight
10 Nov - 12:51:55 10° WSW 12:53:19 12° SW 12:54:44 10° SSW daylight
